[[{"header":{"parameterUnit":"m.s-1","parameterCategory":1,"la1":30.2991,"la2":30.254,"lo1":-89.0895,"lo2":-89.0444,"dy":0.0017,"dx":0.0017,"nx":28,"ny":28,"refTime":"2023-09-13T09:00:00:Z","depth":0,"parameterNumber":2,"parameterNumberName":"U-component_of_WINDS"},"data":[0,0,0,0,0,0,0,0,0,0,0,0,0,0,0,0,0,0,0,0,0,0,0,0,0,0,0,0,0,0,0,0,0,0,0,0,0,0,0,0,0,0,0,0,0,0,0,0,0,0,0,0,0,0,0,0,0,0,-2.324,-2.324,0,-2.332,-2.332,-2.3321,-2.3266,-2.3264,-2.3262,-2.3259,-2.3342,-2.3347,-2.3351,0,0,0,0,0,0,0,0,0,0,0,0,0,-2.304,-2.3044,-2.324,-2.3241,-2.3242,-2.3319,-2.332,-2.3322,-2.3267,-2.3264,-2.3261,-2.3258,-2.3341,-2.3346,-2.3352,0,0,0,0,0,0,0,0,0,0,0,0,0,-2.3124,-2.3045,-2.3239,-2.3224,-2.3223,-2.3319,-2.3321,-2.3322,-2.3268,-2.3264,-2.326,-2.3257,-2.3339,-2.3346,-2.3352,-2.3469,0,0,-2.3373,-2.3376,0,0,0,0,0,0,0,0,-2.3119,-2.3132,-2.3225,-2.3225,-2.3224,-2.3279,-2.3281,-2.3371,-2.3269,-2.3251,-2.3259,-2.3255,-2.3324,-2.3332,-2.3355,-2.3473,-2.3476,-2.3374,-2.3378,-2.3381,-2.3383,0,0,0,0,0,0,0,-2.3114,-2.3128,-2.3271,-2.3226,-2.3226,-2.3213,-2.3221,-2.3297,-2.3308,-2.3252,-2.3248,-2.3258,-2.3323,-2.3349,-2.3357,-2.3477,-2.3373,-2.3379,-2.3384,-2.3386,-2.3694,-2.3698,0,0,0,0,0,0,-2.3109,-2.3123,-2.3269,-2.3274,-2.3162,-2.3219,-2.3228,-2.3265,-2.3306,-2.3309,-2.3261,-2.3255,-2.3339,-2.3349,-2.336,-2.3499,-2.3381,-2.3387,-2.3391,-2.369,-2.3695,-2.37,0,0,0,0,0,0,-2.3105,-2.3123,-2.3265,-2.3197,-2.3215,-2.3227,-2.3269,-2.3269,-2.3294,-2.3314,-2.3315,-2.3286,-2.3337,-2.335,-2.3442,-2.3501,-2.339,-2.3396,-2.3685,-2.3692,-2.3697,-2.3779,0,0,0,0,0,0,-2.31,-2.3121,-2.3166,-2.3199,-2.3218,-2.3347,-2.3273,-2.3273,-2.3306,-2.3299,-2.3337,-2.3339,-2.3335,-2.3432,-2.3449,-2.3508,-2.3401,-2.368,-2.3688,-2.3695,-2.3771,-2.3787,-2.3801,0,0,0,0,0,-2.3093,-2.3186,-2.3168,-2.3186,-2.3274,-2.335,-2.3361,-2.3354,-2.3311,-2.3356,-2.3368,-2.3338,-2.3492,-2.3442,-2.346,-2.3523,-2.3676,-2.3686,-2.3695,-2.3764,-2.3784,-2.38,0,0,0,0,0,0,-2.316,-2.319,-2.3171,-2.3277,-2.3312,-2.3341,-2.3397,-2.3375,-2.3422,-2.3414,-2.3402,-2.3411,-2.3508,-2.3524,-2.3468,-2.3638,-2.3577,-2.3591,-2.3624,-2.3643,-2.3657,-2.3652,-2.3407,0,0,0,0,0,-2.3187,-2.3246,-2.3269,-2.3361,-2.3379,-2.3385,-2.3418,-2.3409,-2.3444,-2.3458,-2.3477,-2.3513,-2.3569,-2.3606,-2.3659,-2.3772,-2.378,-2.3824,-2.3839,-2.3851,-2.3864,-2.3925,-2.3945,-2.373,-2.373,-2.373,0,0,-2.3244,-2.3268,-2.3306,-2.3375,-2.34,-2.3462,-2.3398,-2.3466,-2.3511,-2.3469,-2.3557,-2.3572,-2.3611,-2.3714,-2.376,-2.3731,-2.3924,-2.3863,-2.3873,-2.3878,-2.3937,-2.3957,-2.3975,-2.3736,-2.3735,-2.3734,0,0,-2.338,-2.3403,-2.3482,-2.3509,-2.3548,-2.3551,-2.357,-2.3603,-2.3611,-2.3699,-2.3669,-2.3723,-2.382,-2.3849,-2.3876,-2.4022,-2.3996,-2.4039,-2.4118,-2.4178,-2.4195,-2.421,-2.4263,-2.4282,-2.4051,-2.4051,-2.4051,0,-2.3446,-2.3537,-2.3526,-2.3596,-2.3628,-2.3591,-2.3672,-2.3698,-2.3753,-2.3775,-2.3741,-2.3862,-2.3885,-2.3995,-2.403,-2.4053,-2.4075,-2.4036,-2.4193,-2.4208,-2.4222,-2.4272,-2.4292,-2.4056,-2.4055,-2.4055,-2.4054,0,-2.3617,-2.3681,-2.374,-2.3793,-2.3831,-2.3906,-2.3907,-2.3947,-2.3934,-2.3941,-2.4031,-2.4058,-2.4115,-2.414,-2.4129,-2.4249,-2.4229,-2.4194,-2.4134,-2.4248,-2.4295,-2.4314,-2.4063,-2.4061,-2.406,-2.4059,0,0,-2.3799,-2.3844,-2.3866,-2.389,-2.393,-2.3979,-2.4052,-2.4108,-2.4143,-2.4181,-2.4243,-2.4325,-2.4293,-2.4324,-2.4316,-2.4368,-2.4483,-2.4327,-2.4327,-2.4356,-2.4617,-2.4644,-2.4667,-2.4465,-2.4469,-2.4472,-2.4614,0,-2.3937,-2.4065,-2.4057,-2.4177,-2.4236,-2.4202,-2.4265,-2.4297,-2.4305,-2.4357,-2.4365,-2.4425,-2.4377,-2.4396,-2.4446,-2.4458,-2.4535,-2.4448,-2.4524,-2.4526,-2.4516,-2.4691,-2.472,-2.4853,-2.4632,-2.4636,-2.4638,0,-2.4116,-2.4161,-2.4287,-2.4318,-2.4342,-2.44,-2.4451,-2.45,-2.4535,-2.4537,-2.4572,-2.4554,-2.4628,-2.4564,-2.4667,-2.4607,-2.4638,-2.4648,-2.4653,-2.4661,-2.459,-2.4705,-2.4895,-2.4916,-2.4667,-2.4664,-2.4662,0,-2.4238,-2.4329,-2.4416,-2.4437,-2.4475,-2.4517,-2.4535,-2.4566,-2.46,-2.4644,-2.4666,-2.4718,-2.4747,-2.4788,-2.4785,-2.4738,-2.4889,-2.4825,-2.4894,-2.4894,-2.4928,-2.4927,-2.5128,-2.4946,-2.4945,-2.4945,-2.4945,0,-2.4394,-2.4473,-2.4471,-2.4525,-2.4612,-2.4602,-2.4688,-2.4702,-2.473,-2.4786,-2.4758,-2.4812,-2.4804,-2.4857,-2.4855,-2.4941,-2.4954,-2.4958,-2.4957,-2.4962,-2.4961,-2.4982,-2.4974,-2.495,-2.4949,-2.4948,-2.4947,0,-2.4545,-2.4547,-2.464,-2.4668,-2.4677,-2.474,-2.4764,-2.4815,-2.4821,-2.4892,-2.4908,-2.4917,-2.4978,-2.4979,-2.5049,-2.5048,-2.5153,-2.514,-2.5141,-2.5139,-2.5209,-2.5203,-2.5431,-2.5461,-2.5259,-2.5261,-2.5262,0,-2.4646,-2.4706,-2.474,-2.4775,-2.4796,-2.4853,-2.4887,-2.4879,-2.4916,-2.496,-2.5006,-2.5064,-2.5111,-2.5211,-2.5224,-2.5278,-2.5267,-2.5343,-2.5275,-2.5278,-2.527,-2.5267,-2.5273,-2.5358,-2.536,-2.5362,-2.5363,0,-2.4824,-2.4822,-2.4873,-2.4924,-2.4966,-2.5005,-2.5042,-2.5073,-2.5068,-2.5111,-2.5173,-2.521,-2.5281,-2.534,-2.5392,-2.541,-2.5387,-2.5384,-2.5403,-2.5409,-2.5408,-2.5411,-2.5179,-2.5379,-2.5378,-2.5377,-2.5376,-2.5375,-2.4954,-2.5006,-2.5038,-2.5095,-2.5121,-2.5156,-2.5206,-2.5217,-2.5269,-2.5326,-2.5318,-2.5387,-2.542,-2.5487,-2.551,-2.5565,-2.5538,-2.5565,-2.5573,-2.558,-2.5588,-2.5398,-2.5574,-2.5573,-2.5573,-2.5573,-2.5572,0,-2.5132,-2.5151,-2.5203,-2.5255,-2.5301,-2.5273,-2.5312,-2.5352,-2.5413,-2.5446,-2.5492,-2.5564,-2.5621,-2.5638,-2.5693,-2.5733,-2.5724,-2.5748,-2.5746,-2.575,-2.5608,-2.5587,-2.5755,-2.5755,-2.5755,-2.5755,-2.5755,-2.5755,-2.523,-2.5316,-2.5318,-2.5417,-2.5435,-2.5503,-2.5527,-2.5559,-2.5585,-2.5666,-2.5713,-2.5724,-2.575,-2.5807,-2.5858,-2.5861,-2.5883,-2.5912,-2.5912,-2.5779,-2.576,-2.5743,-2.5723,-2.5917,-2.5917,-2.605,-2.6051,-2.6052]},{"header":{"parameterUnit":"m.s-1","parameterCategory":1,"la1":30.2991,"la2":30.254,"lo1":-89.0895,"lo2":-89.0444,"dy":0.0017,"dx":0.0017,"nx":28,"ny":28,"refTime":"2023-09-13T09:00:00:Z","depth":0,"parameterNumber":3,"parameterNumberName":"V-component_of_WINDS"},"data":[0,0,0,0,0,0,0,0,0,0,0,0,0,0,0,0,0,0,0,0,0,0,0,0,0,0,0,0,0,0,0,0,0,0,0,0,0,0,0,0,0,0,0,0,0,0,0,0,0,0,0,0,0,0,0,0,0,0,-4.4651,-4.4652,0,-4.4681,-4.4682,-4.4682,-4.4632,-4.4631,-4.4629,-4.4627,-4.4655,-4.4657,-4.466,0,0,0,0,0,0,0,0,0,0,0,0,0,-4.4547,-4.4549,-4.4651,-4.4652,-4.4652,-4.4681,-4.4682,-4.4682,-4.4633,-4.463,-4.4628,-4.4627,-4.4654,-4.4657,-4.466,0,0,0,0,0,0,0,0,0,0,0,0,0,-4.4586,-4.455,-4.4651,-4.4631,-4.463,-4.4681,-4.4682,-4.4682,-4.4633,-4.463,-4.4628,-4.4626,-4.4653,-4.4657,-4.466,-4.4732,0,0,-4.4671,-4.4672,0,0,0,0,0,0,0,0,-4.4584,-4.459,-4.4634,-4.4633,-4.4631,-4.4651,-4.4655,-4.4699,-4.4634,-4.4632,-4.4627,-4.4624,-4.4655,-4.4659,-4.467,-4.4734,-4.4735,-4.4671,-4.4673,-4.4675,-4.4676,0,0,0,0,0,0,0,-4.4582,-4.4589,-4.4663,-4.4634,-4.4633,-4.4619,-4.4622,-4.4663,-4.4657,-4.4632,-4.4628,-4.4632,-4.4654,-4.4666,-4.467,-4.4735,-4.4671,-4.4674,-4.4676,-4.4678,-4.4858,-4.486,0,0,0,0,0,0,-4.4582,-4.4587,-4.4662,-4.4664,-4.4601,-4.4623,-4.4626,-4.4647,-4.4657,-4.4656,-4.4635,-4.463,-4.4662,-4.4666,-4.4671,-4.4754,-4.4675,-4.4678,-4.468,-4.4855,-4.4858,-4.4861,0,0,0,0,0,0,-4.458,-4.4589,-4.4661,-4.4624,-4.4633,-4.4628,-4.4651,-4.4649,-4.4661,-4.4659,-4.4657,-4.4648,-4.466,-4.4666,-4.4717,-4.4755,-4.468,-4.4683,-4.4852,-4.4856,-4.486,-4.4923,0,0,0,0,0,0,-4.4577,-4.4589,-4.4617,-4.4626,-4.4635,-4.4708,-4.4653,-4.4651,-4.4667,-4.4662,-4.4672,-4.4671,-4.4658,-4.4712,-4.4721,-4.4758,-4.4685,-4.4848,-4.4854,-4.4859,-4.4918,-4.4929,-4.4939,0,0,0,0,0,-4.4574,-4.4634,-4.4619,-4.4628,-4.467,-4.4711,-4.4716,-4.4701,-4.4671,-4.4698,-4.4697,-4.467,-4.475,-4.4718,-4.4727,-4.4766,-4.4846,-4.4852,-4.4858,-4.4913,-4.4927,-4.4938,0,0,0,0,0,0,-4.4629,-4.4634,-4.4618,-4.4683,-4.4697,-4.4702,-4.4737,-4.4716,-4.4738,-4.4732,-4.4712,-4.4715,-4.477,-4.4773,-4.4738,-4.4835,-4.4792,-4.4801,-4.4831,-4.4844,-4.4854,-4.4852,-4.4688,0,0,0,0,0,-4.4649,-4.4682,-4.4685,-4.4742,-4.475,-4.4742,-4.4759,-4.4747,-4.476,-4.4765,-4.4767,-4.478,-4.4808,-4.4826,-4.4852,-4.4918,-4.4919,-4.4949,-4.496,-4.4968,-4.4975,-4.5009,-4.5022,-4.4881,-4.4881,-4.4881,0,0,-4.469,-4.4697,-4.472,-4.4753,-4.4762,-4.4796,-4.4747,-4.4785,-4.4809,-4.477,-4.4819,-4.4821,-4.4834,-4.4893,-4.4919,-4.4897,-4.5015,-4.4976,-4.4983,-4.4985,-4.5017,-4.503,-4.5042,-4.4885,-4.4885,-4.4884,0,0,-4.4782,-4.4792,-4.4839,-4.485,-4.4864,-4.4859,-4.487,-4.4879,-4.4879,-4.4927,-4.4898,-4.4926,-4.4974,-4.4984,-4.4996,-4.509,-4.5066,-4.5099,-4.5153,-4.5186,-4.5197,-4.5207,-4.5239,-4.5251,-4.5106,-4.5106,-4.5106,0,-4.4831,-4.4882,-4.4866,-4.4906,-4.4921,-4.4888,-4.4935,-4.4945,-4.4967,-4.4977,-4.4953,-4.5012,-4.5018,-4.5078,-4.5101,-4.5112,-4.5123,-4.5097,-4.5197,-4.5207,-4.5215,-4.5246,-4.5258,-4.511,-4.511,-4.5109,-4.5109,0,-4.4941,-4.4976,-4.5013,-4.5035,-4.5054,-4.5097,-4.5087,-4.5107,-4.5093,-4.509,-4.5138,-4.5145,-4.517,-4.5184,-4.517,-4.5241,-4.5227,-4.5201,-4.5157,-4.5233,-4.5261,-4.5273,-4.5115,-4.5114,-4.5113,-4.5112,0,0,-4.5069,-4.5082,-4.5095,-4.5104,-4.5117,-4.5144,-4.5185,-4.521,-4.5227,-4.5243,-4.5276,-4.5317,-4.5292,-4.5305,-4.5292,-4.5322,-4.5394,-4.5291,-4.5291,-4.5309,-4.5471,-4.549,-4.5504,-4.5378,-4.5381,-4.5382,-4.5469,0,-4.516,-4.5231,-4.5217,-4.5286,-4.5318,-4.5286,-4.5321,-4.5333,-4.533,-4.5355,-4.5352,-4.5381,-4.5347,-4.5354,-4.5382,-4.5379,-4.5426,-4.5373,-4.5407,-4.5409,-4.5404,-4.5519,-4.554,-4.5622,-4.5481,-4.5482,-4.5484,0,-4.5275,-4.5295,-4.5368,-4.5375,-4.5387,-4.5419,-4.544,-4.5466,-4.5477,-4.5473,-4.5487,-4.5468,-4.5507,-4.5464,-4.5516,-4.548,-4.5493,-4.5494,-4.5497,-4.5499,-4.545,-4.5523,-4.5648,-4.566,-4.5501,-4.55,-4.5499,0,-4.5359,-4.5405,-4.5454,-4.5463,-4.5472,-4.5495,-4.55,-4.5509,-4.5525,-4.5543,-4.5552,-4.5575,-4.5587,-4.5604,-4.5591,-4.5561,-4.5645,-4.5601,-4.5642,-4.5642,-4.566,-4.5659,-4.5788,-4.5671,-4.5671,-4.5671,-4.567,0,-4.5461,-4.5506,-4.5492,-4.5522,-4.557,-4.5554,-4.5602,-4.5603,-4.5611,-4.564,-4.5614,-4.5641,-4.5622,-4.5648,-4.5638,-4.5682,-4.5688,-4.5685,-4.5681,-4.5686,-4.5687,-4.5694,-4.5687,-4.5674,-4.5673,-4.5673,-4.5672,0,-4.5564,-4.5556,-4.5607,-4.5611,-4.5613,-4.5649,-4.5652,-4.5679,-4.5675,-4.5711,-4.5719,-4.5711,-4.5739,-4.5728,-4.5758,-4.5751,-4.5807,-4.5797,-4.5804,-4.5801,-4.5842,-4.5837,-4.5979,-4.5996,-4.5869,-4.587,-4.5871,0,-4.5629,-4.5663,-4.5671,-4.5688,-4.5695,-4.5724,-4.5739,-4.5724,-4.5741,-4.5755,-4.578,-4.5806,-4.5826,-4.5872,-4.5869,-4.5891,-4.588,-4.5928,-4.5883,-4.5887,-4.5879,-4.5877,-4.588,-4.5937,-4.5938,-4.594,-4.5941,0,-4.5745,-4.5739,-4.5763,-4.5785,-4.5805,-4.5821,-4.5836,-4.5851,-4.5836,-4.5856,-4.5885,-4.59,-4.5931,-4.5956,-4.5976,-4.5979,-4.5957,-4.5955,-4.5965,-4.597,-4.5972,-4.597,-4.5827,-4.5951,-4.595,-4.595,-4.5949,-4.5949,-4.5829,-4.5857,-4.5867,-4.5894,-4.5903,-4.5917,-4.5942,-4.5941,-4.5965,-4.5988,-4.5977,-4.601,-4.6019,-4.6043,-4.6049,-4.6074,-4.6055,-4.607,-4.6074,-4.6078,-4.6083,-4.5969,-4.6078,-4.6077,-4.6077,-4.6077,-4.6076,0,-4.5942,-4.5947,-4.5972,-4.5993,-4.6014,-4.5992,-4.6006,-4.6025,-4.6054,-4.6065,-4.6085,-4.6117,-4.6141,-4.6139,-4.6161,-4.6181,-4.6172,-4.6188,-4.6185,-4.6186,-4.6099,-4.6087,-4.6195,-4.6195,-4.6195,-4.6195,-4.6195,-4.6195,-4.6004,-4.605,-4.6045,-4.6094,-4.6098,-4.613,-4.614,-4.6152,-4.616,-4.6197,-4.6217,-4.6216,-4.6221,-4.6243,-4.6264,-4.6263,-4.6272,-4.6291,-4.6286,-4.6204,-4.6193,-4.6181,-4.617,-4.6294,-4.6294,-4.6371,-4.6372,-4.6372]}]]